HB9EYW-6 Weather Reports


time (UTC)temp
C
wind
direction
speed
KPH
gust
KPH
rain 1hr
cm
rain 24hr
cm
rain mn
cm
humidity
%
barometer
mb
20260506185003 11 0 0.0 0.0 0.00 0.76 0.76 84
20260506184503 11 0 0.0 0.0 0.03 0.76 0.76 84
20260506184003 11 0 0.0 0.0 0.03 0.76 0.76 84
20260506183503 11 0 0.0 0.0 0.03 0.76 0.76 84
20260506183003 11 0 0.0 0.0 0.03 0.76 0.76 84
20260506182503 11 0 0.0 0.0 0.03 0.76 0.76 84
20260506182003 11 0 0.0 0.0 0.03 0.76 0.76 83
20260506181503 11 0 0.0 0.0 0.03 0.76 0.76 83
20260506181003 11 0 0.0 0.0 0.03 0.76 0.76 83
20260506180503 11 0 0.0 0.0 0.03 0.76 0.76 82
20260506180004 11 247 0.0 1.6 0.03 0.76 0.76 82
20260506175503 11 263 0.0 1.6 0.03 0.76 0.76 82
20260506175003 11 259 0.0 1.6 0.03 0.76 0.76 82
20260506174503 11 239 0.0 1.6 0.00 0.71 0.71 82
20260506174003 11 256 0.0 1.6 0.00 0.71 0.71 82
20260506173503 11 315 0.0 1.6 0.00 0.71 0.71 81
20260506173003 11 285 0.0 1.6 0.03 0.71 0.71 81
20260506172503 11 290 0.0 1.6 0.03 0.71 0.71 81
20260506172003 11 276 0.0 3.2 0.03 0.71 0.71 80
20260506171503 11 267 0.0 3.2 0.03 0.71 0.71 80
20260506171003 11 0 0.0 0.0 0.03 0.71 0.71 80
20260506170503 12 315 0.0 1.6 0.03 0.71 0.71 79
20260506170003 12 315 0.0 1.6 0.03 0.71 0.71 79
20260506165503 12 326 0.0 1.6 0.03 0.71 0.71 79
20260506165003 12 199 0.0 3.2 0.03 0.71 0.71 79
20260506164505 12 194 0.0 3.2 0.03 0.71 0.71 78
20260506164005 12 245 0.0 3.2 0.03 0.71 0.71 79
20260506163505 12 160 0.0 3.2 0.03 0.71 0.71 79
20260506163005 12 132 0.0 3.2 0.00 0.69 0.69 79
20260506162505 12 45 0.0 1.6 0.00 0.69 0.69 79
20260506162005 12 135 0.0 1.6 0.00 0.69 0.69 78
20260506161505 12 135 0.0 3.2 0.00 0.69 0.69 78
20260506161005 12 135 0.0 3.2 0.00 0.69 0.69 77
20260506160505 12 135 0.0 3.2 0.00 0.69 0.69 78
20260506160005 12 135 0.0 3.2 0.00 0.69 0.69 78
20260506155505 12 135 0.0 3.2 0.00 0.69 0.69 78
20260506155005 12 133 0.0 3.2 0.00 0.69 0.69 77
20260506154505 12 130 0.0 3.2 0.00 0.69 0.69 77
20260506154005 12 172 0.0 3.2 0.00 0.69 0.69 77
20260506153505 12 160 0.0 3.2 0.00 0.69 0.69 77
20260506153005 12 139 0.0 3.2 0.00 0.69 0.69 77
20260506152505 12 143 0.0 3.2 0.00 0.69 0.69 77
20260506152005 12 158 0.0 3.2 0.00 0.69 0.69 77
20260506151505 12 153 0.0 3.2 0.00 0.69 0.69 77
20260506151005 12 96 0.0 3.2 0.00 0.69 0.69 77
20260506150505 12 150 0.0 3.2 0.00 0.69 0.69 78
20260506150005 12 152 0.0 4.8 0.00 0.69 0.69 78
20260506145505 12 290 1.6 6.4 0.00 0.69 0.69 78
20260506145005 12 264 0.0 6.4 0.00 0.69 0.69 78
20260506144505 12 165 1.6 3.2 0.00 0.69 0.69 79
20260506144005 12 131 0.0 3.2 0.00 0.69 0.69 79
20260506143505 12 143 0.0 3.2 0.00 0.69 0.69 79
20260506143005 12 202 0.0 3.2 0.00 0.69 0.69 79
20260506142505 12 172 0.0 3.2 0.00 0.69 0.69 80
20260506142005 12 152 0.0 3.2 0.03 0.69 0.69 81
20260506141505 12 147 0.0 3.2 0.03 0.69 0.69 81
20260506141005 12 140 0.0 3.2 0.03 0.69 0.69 81
20260506140505 12 143 0.0 3.2 0.03 0.69 0.69 81
20260506140005 12 149 0.0 4.8 0.03 0.69 0.69 81
20260506135505 11 86 0.0 4.8 0.03 0.69 0.69 82
20260506135005 11 26 0.0 4.8 0.03 0.69 0.69 82
20260506134505 11 243 0.0 4.8 0.03 0.69 0.69 82
20260506134005 11 211 1.6 4.8 0.03 0.69 0.69 82
20260506133505 11 201 1.6 3.2 0.05 0.69 0.69 82
20260506133005 11 163 0.0 6.4 0.05 0.69 0.69 82
20260506132505 11 100 1.6 6.4 0.05 0.69 0.69 81
20260506132005 11 85 1.6 6.4 0.03 0.66 0.66 81
20260506131505 11 215 3.2 9.7 0.05 0.66 0.66 81
20260506131005 11 260 3.2 9.7 0.05 0.66 0.66 82
20260506130505 11 264 1.6 9.7 0.10 0.66 0.66 83
20260506130005 11 82 1.6 12.9 0.10 0.66 0.66 83
20260506125505 11 167 3.2 12.9 0.10 0.66 0.66 83
20260506125005 11 215 3.2 12.9 0.10 0.66 0.66 85
20260506124505 11 257 3.2 4.8 0.13 0.66 0.66 85
20260506124005 11 269 0.0 6.4 0.13 0.66 0.66 85
20260506123505 11 308 1.6 11.3 0.18 0.64 0.64 85
20260506123005 11 288 3.2 11.3 0.36 0.64 0.64 86
20260506122505 12 229 1.6 3.2 0.43 0.64 0.64 87
20260506122005 12 238 0.0 3.2 0.46 0.64 0.64 86
20260506121505 12 205 0.0 3.2 0.43 0.61 0.61 86
20260506121005 11 223 0.0 3.2 0.46 0.61 0.61 85
20260506120505 11 256 0.0 3.2 0.46 0.56 0.56 83
20260506120005 11 307 0.0 6.4 0.46 0.56 0.56 83
20260506115505 11 324 1.6 6.4 0.46 0.56 0.56 83
20260506115005 11 289 3.2 6.4 0.48 0.56 0.56 82
20260506114505 12 174 1.6 6.4 0.46 0.53 0.53 81
20260506114005 12 172 3.2 11.3 0.48 0.53 0.53 79
20260506113505 12 204 3.2 11.3 0.38 0.46 0.46 79
20260506113005 13 151 1.6 6.4 0.20 0.28 0.28 79
20260506112608 13 133 1.6 3.2 0.18 0.20 0.20 78
20260506112005 13 134 0.0 3.2 0.15 0.18 0.18 77
20260506111505 13 175 0.0 3.2 0.18 0.18 0.18 76
20260506111005 13 184 0.0 3.2 0.15 0.15 0.15 75
20260506110505 13 180 0.0 3.2 0.13 0.13 0.13 74
20260506110005 13 202 0.0 3.2 0.13 0.13 0.13 74
20260506105505 13 203 0.0 3.2 0.13 0.13 0.13 73
20260506105005 13 183 0.0 3.2 0.10 0.10 0.10 73
20260506104505 13 241 0.0 1.6 0.10 0.10 0.10 72
20260506104005 13 165 0.0 1.6 0.05 0.05 0.05 72
20260506103505 13 125 0.0 3.2 0.05 0.05 0.05 71
20260506103005 13 126 0.0 3.2 0.05 0.05 0.05 70
20260506102505 13 142 0.0 3.2 0.03 0.03 0.03 69
20260506102005 13 128 0.0 3.2 0.03 0.03 0.03 68
20260506101505 14 114 0.0 3.2 0.00 0.00 0.00 67
20260506101005 14 315 0.0 3.2 0.00 0.00 0.00 66
20260506100505 14 334 0.0 3.2 0.00 0.00 0.00 65
20260506100005 14 142 0.0 3.2 0.00 0.00 0.00 65
20260506095505 14 161 0.0 4.8 0.00 0.00 0.00 65
20260506095005 15 159 1.6 4.8 0.00 0.00 0.00 65
20260506094505 14 307 0.0 3.2 0.00 0.00 0.00 65
20260506094005 14 202 0.0 3.2 0.00 0.00 0.00 65
20260506093505 14 226 0.0 3.2 0.00 0.00 0.00 65
20260506093005 14 278 0.0 3.2 0.00 0.00 0.00 64
20260506092505 14 281 1.6 3.2 0.00 0.00 0.00 63
20260506092005 14 267 0.0 3.2 0.00 0.00 0.00 62
20260506091505 14 159 0.0 3.2 0.00 0.00 0.00 62
20260506091005 14 180 1.6 3.2 0.00 0.00 0.00 62
20260506090505 14 169 0.0 3.2 0.00 0.00 0.00 61
20260506090005 14 197 0.0 3.2 0.00 0.00 0.00 61
20260506085505 15 206 0.0 3.2 0.00 0.00 0.00 61
20260506085005 15 122 0.0 3.2 0.00 0.00 0.00 61
20260506084505 15 129 0.0 3.2 0.00 0.00 0.00 60
20260506084005 15 144 0.0 3.2 0.00 0.00 0.00 61
20260506083505 15 158 0.0 1.6 0.00 0.00 0.00 63
20260506083005 15 147 0.0 3.2 0.00 0.00 0.00 63
20260506082505 15 150 0.0 3.2 0.00 0.00 0.00 64
20260506082005 15 151 0.0 3.2 0.00 0.00 0.00 65
20260506081505 15 182 1.6 3.2 0.00 0.00 0.00 66
20260506081005 15 246 0.0 3.2 0.00 0.00 0.00 66
20260506080505 15 14 0.0 6.4 0.00 0.00 0.00 66
20260506073505 14 131 0.0 3.2 0.00 0.00 0.00 70
20260506073005 14 130 0.0 3.2 0.00 0.00 0.00 71
20260506072505 14 133 0.0 3.2 0.00 0.03 0.00 72
20260506072005 14 131 1.6 3.2 0.00 0.03 0.00 73
20260506071505 13 108 0.0 3.2 0.00 0.03 0.00 74
20260506071005 13 97 0.0 3.2 0.00 0.03 0.00 74
20260506070505 12 111 0.0 3.2 0.00 0.03 0.00 75
20260506062505 12 135 1.6 6.4 0.00 0.03 0.00 80
20260506062005 12 131 1.6 4.8 0.00 0.03 0.00 81
20260506061505 12 138 0.0 6.4 0.00 0.03 0.00 81
20260506061005 12 142 1.6 6.4 0.00 0.03 0.00 82
20260506060505 11 134 0.0 3.2 0.00 0.03 0.00 82
20260506051005 11 0 0.0 0.0 0.00 0.03 0.00 82
20260506050505 11 90 0.0 1.6 0.00 0.03 0.00 82
20260506045005 11 152 1.6 3.2 0.00 0.03 0.00 82
20260506044505 11 225 0.0 1.6 0.00 0.03 0.00 82
20260506044005 11 225 0.0 1.6 0.00 0.03 0.00 82
20260506043505 11 225 0.0 1.6 0.00 0.03 0.00 82
20260506043005 11 135 0.0 3.2 0.00 0.03 0.00 82
20260506042505 11 135 0.0 3.2 0.00 0.03 0.00 82
20260506042005 11 136 0.0 3.2 0.00 0.03 0.00 82
20260506041505 11 140 0.0 3.2 0.00 0.03 0.00 82
20260506041005 11 137 0.0 3.2 0.00 0.03 0.00 82
20260506040505 11 135 1.6 3.2 0.00 0.03 0.00 82
20260506040005 11 135 1.6 3.2 0.00 0.03 0.00 82
20260506035505 11 135 0.0 3.2 0.00 0.03 0.00 82
20260506035005 11 135 0.0 3.2 0.00 0.03 0.00 82
20260506034505 11 0 0.0 0.0 0.00 0.03 0.00 82
20260506034005 11 125 0.0 4.8 0.00 0.03 0.00 81
20260506033505 11 131 0.0 4.8 0.00 0.03 0.00 81
20260506033005 11 135 3.2 3.2 0.00 0.03 0.00 81
20260506032505 11 135 0.0 1.6 0.00 0.03 0.00 81
20260506032005 11 315 0.0 1.6 0.00 0.03 0.00 81
20260506031505 11 135 0.0 3.2 0.00 0.03 0.00 81
20260506031005 11 135 0.0 3.2 0.00 0.03 0.00 81
20260506030505 11 133 1.6 4.8 0.00 0.03 0.00 81
20260506030005 11 123 1.6 4.8 0.00 0.03 0.00 81
20260506025505 11 126 3.2 4.8 0.00 0.03 0.00 80
20260506025005 11 130 0.0 4.8 0.00 0.03 0.00 80
20260506024505 11 136 1.6 3.2 0.00 0.03 0.00 79
20260506024005 11 161 0.0 3.2 0.00 0.03 0.00 79
20260506023504 11 125 0.0 3.2 0.00 0.03 0.00 79
20260506023004 11 104 1.6 6.4 0.00 0.03 0.00 78
20260506022505 11 116 0.0 6.4 0.00 0.03 0.00 78
20260506022004 11 118 3.2 6.4 0.00 0.03 0.00 78
20260506021504 11 132 0.0 3.2 0.00 0.03 0.00 77
20260506021004 11 0 0.0 0.0 0.00 0.03 0.00 77
20260506020504 11 109 0.0 3.2 0.00 0.03 0.00 77
20260506020005 11 130 0.0 3.2 0.00 0.03 0.00 77
20260506015505 11 193 0.0 1.6 0.00 0.03 0.00 76
20260506015004 12 203 0.0 3.2 0.00 0.03 0.00 76
20260506014504 12 166 0.0 3.2 0.00 0.03 0.00 76
20260506014005 12 135 0.0 3.2 0.00 0.03 0.00 76
20260506013504 12 135 0.0 1.6 0.00 0.03 0.00 75
20260506013005 12 135 0.0 1.6 0.00 0.03 0.00 75
20260506012504 12 146 0.0 3.2 0.00 0.03 0.00 75
20260506012004 12 148 0.0 3.2 0.00 0.03 0.00 75
20260506011504 12 106 0.0 3.2 0.00 0.03 0.00 75
20260506011004 12 97 0.0 3.2 0.00 0.03 0.00 75
20260506010504 12 107 1.6 6.4 0.00 0.03 0.00 75
20260506010004 12 121 1.6 6.4 0.00 0.03 0.00 75
20260506005504 12 136 0.0 3.2 0.00 0.03 0.00 76
20260506005004 12 141 0.0 3.2 0.00 0.03 0.00 76
20260506004505 12 140 0.0 3.2 0.00 0.03 0.00 76
20260506004004 12 140 0.0 3.2 0.00 0.03 0.00 76
20260506003504 12 143 0.0 3.2 0.00 0.03 0.00 76
20260506003004 12 135 0.0 3.2 0.00 0.03 0.00 76
20260506002504 12 135 0.0 3.2 0.00 0.03 0.00 75
20260506002004 12 138 0.0 3.2 0.00 0.03 0.00 75
20260506001504 12 142 0.0 3.2 0.00 0.03 0.00 75
20260506001004 12 145 0.0 3.2 0.00 0.03 0.00 75
20260506000504 12 135 0.0 1.6 0.00 0.03 0.00 75
20260506000005 12 132 0.0 4.8 0.00 0.03 0.00 75
20260505235504 12 133 0.0 4.8 0.00 0.03 0.00 75
20260505235004 12 149 0.0 4.8 0.00 0.03 0.00 75
20260505234504 12 159 0.0 4.8 0.00 0.03 0.00 75
20260505234004 12 146 0.0 3.2 0.00 0.03 0.00 75
20260505233504 12 126 0.0 6.4 0.00 0.03 0.00 75
20260505233004 12 129 1.6 6.4 0.00 0.03 0.00 75
20260505232504 12 153 0.0 3.2 0.00 0.03 0.00 75
20260505232004 12 157 0.0 3.2 0.00 0.03 0.00 75
20260505231504 13 175 0.0 3.2 0.00 0.03 0.00 75
20260505231004 13 183 0.0 3.2 0.00 0.03 0.00 75
20260505230504 13 180 0.0 1.6 0.00 0.03 0.00 74
20260505230004 13 163 0.0 3.2 0.00 0.03 0.00 74
20260505225504 13 139 0.0 4.8 0.00 0.03 0.00 74
20260505225004 13 139 0.0 6.4 0.00 0.03 0.00 75
20260505224504 13 138 1.6 6.4 0.00 0.03 0.00 75
20260505224004 13 133 3.2 6.4 0.00 0.03 0.00 75
20260505223504 13 158 0.0 1.6 0.00 0.03 0.00 75
20260505223004 13 164 0.0 3.2 0.00 0.03 0.00 75
20260505222504 13 152 0.0 3.2 0.00 0.03 0.00 75
20260505222004 13 149 0.0 4.8 0.00 0.03 0.00 75
20260505221504 13 137 0.0 4.8 0.00 0.03 0.00 76
20260505221004 13 132 0.0 3.2 0.00 0.03 0.00 76
20260505220504 13 142 1.6 3.2 0.00 0.03 0.00 76
20260505220005 13 148 1.6 3.2 0.00 0.03 0.00 76
20260505215504 13 143 0.0 3.2 0.00 0.03 0.03 76
20260505215004 13 127 0.0 4.8 0.00 0.03 0.03 77
20260505214504 13 117 1.6 6.4 0.00 0.03 0.03 76
20260505214004 13 126 1.6 6.4 0.00 0.03 0.03 76
20260505213504 13 135 1.6 4.8 0.00 0.03 0.03 76
20260505213004 13 139 0.0 6.4 0.00 0.03 0.03 75
20260505212504 13 117 1.6 6.4 0.00 0.03 0.03 75
20260505212004 13 109 3.2 6.4 0.00 0.03 0.03 75
20260505211504 13 131 0.0 4.8 0.00 0.03 0.03 74
20260505211004 13 135 0.0 3.2 0.00 0.03 0.03 73
20260505210504 13 139 0.0 1.6 0.00 0.03 0.03 72
20260505210004 13 144 0.0 3.2 0.00 0.03 0.03 72
20260505205504 13 145 0.0 3.2 0.00 0.03 0.03 72
20260505205004 13 0 0.0 0.0 0.00 0.03 0.03 71
20260505204504 13 0 0.0 0.0 0.00 0.03 0.03 70
20260505204004 13 0 0.0 0.0 0.00 0.03 0.03 70
20260505203504 13 180 0.0 1.6 0.00 0.03 0.03 70
20260505203004 13 220 0.0 1.6 0.00 0.03 0.03 69
20260505202504 13 279 0.0 1.6 0.00 0.03 0.03 68
20260505202004 13 271 0.0 3.2 0.00 0.03 0.03 68
20260505201504 13 133 0.0 3.2 0.00 0.03 0.03 68
20260505201004 13 135 0.0 3.2 0.00 0.03 0.03 68
20260505200504 13 0 0.0 0.0 0.00 0.03 0.03 66
20260505200004 13 135 0.0 1.6 0.00 0.03 0.03 66
20260505195504 14 135 0.0 1.6 0.00 0.03 0.03 66
20260505195004 14 135 0.0 3.2 0.00 0.03 0.03 65
20260505194504 14 135 0.0 3.2 0.00 0.03 0.03 64
20260505194004 14 135 0.0 3.2 0.00 0.03 0.03 63
20260505193504 14 135 0.0 1.6 0.00 0.03 0.03 61
20260505193004 14 170 0.0 1.6 0.00 0.03 0.03 60
20260505192504 14 177 0.0 3.2 0.00 0.03 0.03 60
20260505192004 15 175 0.0 3.2 0.00 0.03 0.03 59
20260505191504 15 187 0.0 3.2 0.00 0.03 0.03 59
20260505191004 15 214 0.0 1.6 0.00 0.03 0.03 59
20260505190504 15 227 0.0 1.6 0.00 0.03 0.03 59
20260505190004 15 215 0.0 3.2 0.00 0.03 0.03 59
20260505185504 15 145 0.0 3.2 0.00 0.03 0.03 59